Wind_Speed
48 48 47 46 46 45 45 45 44 43 41 40 39 38 37 36 36 35 34 33 33 32 32 32 32 32 32 32 32 32 31 32 32 32 33 33 33 33 33 34 34 35 36
50 50 50 49 48 47 47 47 45 45 44 43 42 41 40 39 38 37 37 35 35 34 34 34 34 33 33 33 32 33 32 33 33 33 34 34 35 35 35 35 36 37 37
52 52 51 51 51 50 49 48 48 46 45 45 44 43 42 42 41 40 39 38 37 36 36 36 35 35 34 34 34 34 34 34 34 35 35 35 36 36 36 36 37 38 39
54 54 53 53 52 52 51 50 49 48 48 47 46 45 45 44 43 42 41 40 39 39 38 38 37 37 37 36 35 36 36 37 36 36 36 37 37 37 37 38 38 39 40
55 55 55 55 54 54 53 52 51 51 50 50 49 48 47 47 46 45 44 43 41 41 40 39 39 39 38 37 37 37 37 37 38 37 38 38 38 38 38 39 39 40 41
54 55 56 56 56 54 54 53 52 52 52 51 51 50 49 49 48 47 46 44 43 42 42 41 40 40 39 39 38 39 38 38 39 39 39 40 39 39 39 40 40 41 42
52 54 55 55 56 55 55 54 53 54 53 52 52 52 50 50 49 48 47 46 45 44 44 43 42 41 40 40 40 40 40 40 40 40 40 40 40 40 40 41 41 42 43
51 52 53 54 56 56 56 55 54 55 54 53 52 53 52 51 50 50 49 48 47 46 45 45 43 42 41 41 40 40 40 40 40 40 40 40 41 41 41 42 42 43 44
49 50 51 52 53 55 55 55 55 55 54 53 53 52 52 51 51 50 50 50 48 48 47 45 44 43 42 42 41 40 40 40 41 41 42 41 41 42 41 42 42 43 44
47 48 49 50 51 52 53 53 54 54 54 53 53 53 52 51 51 51 51 50 49 49 48 47 45 44 43 42 42 41 41 41 42 42 42 42 42 42 42 42 42 43 44
46 47 48 49 49 50 51 52 52 53 55 54 54 54 53 52 52 52 51 50 50 50 49 48 47 46 45 44 43 42 42 42 43 43 43 42 43 42 43 43 43 44 45
45 46 47 47 48 49 50 50 50 52 53 53 53 53 52 52 52 51 51 51 50 50 51 49 48 47 45 45 44 44 43 43 43 42 42 42 42 42 43 43 44 45 45
44 45 46 46 46 47 47 47 49 48 49 50 51 50 50 50 50 49 49 49 49 49 50 50 49 47 45 45 45 45 44 42 42 42 42 42 43 44 43 43 44 45 45
42 43 44 44 44 45 45 45 46 46 46 47 48 48 49 48 48 48 47 47 48 47 47 47 47 47 47 46 45 44 43 43 42 42 41 42 43 44 44 44 44 44 45
39 41 41 42 42 43 44 44 43 44 45 45 45 46 46 45 45 44 44 44 44 45 45 46 46 46 46 45 44 44 43 42 42 41 41 42 43 43 43 44 43 44 46
38 39 38 39 39 40 41 42 43 43 43 44 44 43 43 44 43 42 42 42 42 43 43 43 44 44 42 42 44 44 42 41 41 41 42 42 42 43 43 43 43 44 46
36 37 37 37 36 37 40 41 41 42 42 42 42 42 41 42 42 40 40 41 42 43 43 42 42 42 41 41 41 41 42 41 40 41 42 41 42 43 43 43 43 45 46
33 34 34 34 34 36 38 39 39 40 40 40 40 39 39 40 41 40 40 40 40 41 41 40 40 41 41 40 40 40 41 40 40 40 41 40 41 41 42 43 43 44 45
31 31 32 33 34 36 36 37 38 37 37 38 38 38 38 38 39 40 41 41 41 41 41 40 39 40 39 38 39 40 41 41 40 39 40 40 40 41 42 42 43 43 43
27 29 31 32 33 34 35 35 35 34 34 35 36 37 36 37 38 40 40 40 40 40 40 40 39 38 37 36 38 40 41 41 39 40 40 40 40 40 41 41 41 41 41
26 28 29 31 32 32 33 32 32 32 32 33 34 35 36 36 37 38 38 38 38 38 39 39 38 37 36 37 38 39 40 39 38 39 39 38 38 39 39 39 39 39 39
27 28 29 29 30 30 30 31 31 30 30 32 33 33 34 34 35 36 37 37 36 37 36 36 37 38 38 38 38 39 38 38 37 37 37 37 37 38 38 37 37 37 36
26 26 27 27 27 27 28 28 29 30 30 30 31 31 32 33 34 36 36 35 36 36 36 36 36 37 37 37 37 37 38 38 36 35 36 35 36 36 35 35 35 36 35
26 25 26 26 26 26 26 27 29 29 29 30 30 30 31 32 33 34 34 35 35 35 34 34 35 36 36 35 35 36 36 37 35 34 35 34 33 33 33 34 34 34 34
26 26 25 25 25 25 26 27 28 28 28 28 29 29 30 30 32 33 32 33 32 32 34 34 35 36 35 35 34 34 34 33 32 31 31 31 31 31 32 32 33 33 33
25 25 25 25 25 25 25 25 26 26 26 26 27 28 28 29 30 30 30 30 31 31 31 31 32 33 33 33 33 32 31 31 30 30 29 29 30 31 31 31 32 32 31
Wind_Direction
253 254 254 255 257 258 259 259 259 261 261 261 262 263 264 266 268 269 271 271 272 272 273 275 275 276 279 282 283 285 286 289 291 292 294 295 297 299 300 302 304 306 307
253 254 254 255 256 256 257 258 258 259 260 261 261 262 263 265 267 269 269 270 270 271 272 274 275 276 278 280 282 283 285 288 290 291 293 294 296 298 299 302 303 304 306
253 253 253 254 255 255 256 257 258 258 259 260 260 261 263 264 265 267 268 269 270 270 270 273 275 275 277 279 281 283 284 286 289 291 292 293 295 296 298 301 302 304 305
253 253 254 255 255 255 256 257 257 257 259 260 260 261 262 263 264 265 267 269 269 269 269 270 273 274 275 278 280 282 283 285 287 290 291 292 294 295 297 300 302 304 305
253 252 253 254 255 255 256 256 257 257 258 260 260 260 261 262 263 264 266 267 268 268 269 269 271 272 273 276 278 281 283 285 288 290 290 291 293 294 296 298 301 303 305
253 252 253 253 255 255 256 256 257 258 258 259 260 260 260 260 261 263 264 264 266 266 267 268 271 271 272 274 277 279 282 285 287 288 290 290 292 294 296 297 300 303 305
253 253 253 254 254 256 257 257 257 258 258 259 259 259 260 260 260 261 262 263 264 265 266 266 268 269 270 272 275 278 280 283 286 288 289 290 292 293 295 297 299 303 305
254 253 253 254 255 256 257 257 258 258 258 258 259 259 259 260 260 259 261 262 263 264 266 266 266 268 268 270 274 276 279 282 285 287 289 290 292 293 295 296 299 302 305
255 254 254 254 255 257 257 257 258 258 258 258 258 260 260 260 259 260 260 261 262 263 263 264 265 267 268 270 272 274 276 280 283 287 289 290 291 293 295 297 299 302 305
256 256 256 256 256 257 257 258 259 259 259 258 259 260 260 261 261 260 260 260 261 261 262 262 263 265 267 268 270 272 274 277 280 284 288 290 291 293 296 297 300 302 304
256 256 257 257 257 258 258 259 259 259 260 259 259 259 259 260 261 262 260 259 260 260 260 261 262 264 266 267 269 271 274 276 279 282 285 288 291 294 295 297 298 302 304
257 256 257 257 256 258 260 260 261 261 260 259 259 259 259 260 261 262 262 260 259 259 260 260 260 263 264 265 267 269 272 275 277 281 284 286 290 292 295 297 299 301 303
260 260 258 258 256 258 260 261 261 260 260 260 259 258 258 259 260 261 261 261 260 259 259 259 259 261 263 265 266 267 270 274 276 279 282 285 288 291 293 295 298 301 304
263 261 259 257 257 259 260 261 260 259 259 260 258 258 257 257 258 260 260 261 261 260 259 257 257 260 262 264 265 268 269 272 274 278 281 284 287 291 293 294 296 301 304
264 262 258 256 258 260 260 260 261 261 260 260 257 257 256 256 257 258 259 260 261 261 259 257 257 258 260 262 264 265 267 269 272 276 278 281 285 289 292 294 298 301 304
265 263 259 258 260 261 260 260 261 261 261 260 258 256 255 257 257 257 258 258 260 261 259 257 256 257 260 262 263 264 265 266 271 275 277 280 284 288 292 294 297 300 303
265 261 259 260 262 261 260 260 261 260 261 260 257 256 258 257 256 255 256 257 259 260 259 258 256 256 259 260 262 264 265 266 269 274 277 282 284 288 291 294 296 299 302
266 262 260 262 263 263 262 261 262 261 260 258 256 257 259 257 255 255 256 256 258 260 260 259 256 256 258 259 260 263 264 266 269 272 276 279 283 287 291 294 297 299 301
268 264 264 267 265 264 263 262 262 261 259 258 256 256 259 257 257 256 256 256 258 259 259 259 257 257 259 260 260 261 262 265 269 273 275 278 282 286 289 294 297 300 303
271 269 269 268 266 266 265 264 261 259 258 257 257 257 259 260 258 255 255 256 258 257 258 259 257 258 259 260 262 262 262 265 267 272 274 277 281 284 288 293 298 300 302
276 274 272 270 267 266 266 265 262 261 260 259 258 258 259 259 257 254 254 255 256 256 258 259 258 259 258 260 262 262 263 265 266 270 273 275 279 283 287 292 296 299 301
281 279 277 275 272 269 267 264 262 262 262 259 258 260 259 257 255 253 253 254 255 257 258 260 258 258 256 258 260 261 263 266 267 269 271 274 279 282 287 292 295 298 300
287 284 281 279 275 269 266 265 263 264 264 261 259 259 259 258 255 252 252 252 254 257 259 260 260 258 258 258 260 262 264 267 268 269 270 273 277 282 287 290 294 298 301
289 286 283 280 275 270 268 266 265 266 265 263 260 258 258 257 255 253 253 253 254 256 256 258 259 258 259 260 262 264 265 266 266 268 271 274 276 281 286 290 294 297 301
290 288 285 283 276 271 270 268 267 266 264 263 260 259 259 257 255 254 255 255 254 254 255 258 259 257 258 259 263 266 266 266 268 269 271 273 276 282 286 289 293 297 300
292 288 285 283 278 273 271 269 267 266 265 263 262 261 261 259 257 255 256 254 252 253 255 257 258 258 258 261 264 266 268 267 268 268 269 273 277 283 287 289 292 295 297
Height
5771 5774 5776 5779 5782 5784 5786 5787 5789 5791 5793 5794 5796 5797 5798 5799 5800 5801 5802 5802 5803 5803 5803 5803 5803 5802 5802 5801 5800 5799 5798 5796 5794 5792 5790 5787 5785 5782 5779 5776 5773 5769 5765
5760 5763 5766 5769 5771 5774 5776 5778 5780 5782 5784 5786 5787 5788 5790 5791 5792 5794 5794 5795 5796 5796 5796 5796 5796 5795 5795 5794 5793 5792 5791 5789 5788 5786 5783 5781 5778 5776 5773 5769 5766 5762 5758
5748 5751 5754 5757 5760 5762 5765 5767 5770 5772 5774 5776 5778 5779 5781 5782 5784 5785 5786 5787 5788 5788 5788 5788 5788 5788 5787 5787 5786 5785 5784 5782 5781 5779 5777 5774 5771 5769 5765 5762 5759 5755 5751
5734 5738 5741 5745 5748 5750 5753 5756 5759 5761 5763 5765 5767 5769 5771 5772 5774 5775 5777 5778 5779 5780 5780 5780 5780 5780 5780 5779 5779 5778 5776 5775 5773 5771 5769 5767 5764 5761 5758 5755 5751 5747 5743
5720 5724 5728 5731 5735 5738 5741 5744 5747 5749 5752 5754 5756 5758 5760 5762 5763 5765 5767 5768 5770 5771 5771 5772 5772 5772 5772 5771 5771 5770 5768 5767 5766 5764 5762 5759 5756 5754 5751 5747 5743 5739 5735
5705 5710 5714 5718 5721 5724 5728 5731 5734 5736 5739 5741 5743 5746 5748 5750 5752 5754 5756 5758 5759 5760 5762 5762 5763 5763 5763 5763 5762 5761 5760 5759 5758 5756 5754 5751 5748 5746 5743 5739 5735 5731 5727
5691 5695 5699 5703 5706 5710 5713 5717 5720 5723 5726 5728 5730 5733 5736 5738 5740 5742 5745 5747 5749 5750 5751 5752 5753 5754 5754 5754 5754 5753 5752 5751 5749 5747 5745 5743 5740 5737 5734 5731 5727 5723 5718
5677 5681 5685 5688 5692 5695 5699 5702 5705 5708 5711 5714 5717 5719 5723 5727 5728 5730 5733 5735 5737 5739 5740 5741 5743 5744 5744 5745 5745 5744 5743 5742 5740 5739 5736 5734 5732 5729 5726 5722 5718 5714 5709
5664 5667 5671 5674 5678 5681 5685 5688 5691 5694 5698 5701 5703 5705 5708 5712 5715 5718 5720 5723 5725 5727 5729 5731 5732 5733 5734 5735 5735 5735 5734 5733 5732 5730 5728 5726 5723 5720 5717 5714 5709 5705 5700
5651 5654 5657 5660 5664 5667 5671 5674 5677 5680 5682 5686 5689 5692 5694 5697 5701 5705 5708 5710 5712 5715 5717 5719 5721 5723 5724 5725 5726 5726 5725 5724 5723 5721 5719 5717 5714 5711 5708 5704 5701 5696 5691
5638 5641 5644 5647 5651 5654 5657 5660 5663 5665 5668 5671 5675 5678 5680 5683 5686 5689 5694 5697 5699 5701 5704 5707 5709 5711 5713 5714 5715 5715 5715 5714 5713 5712 5710 5708 5705 5702 5699 5695 5691 5687 5682
5626 5629 5632 5635 5638 5641 5644 5647 5649 5651 5654 5657 5660 5663 5666 5669 5672 5674 5678 5682 5685 5689 5691 5693 5697 5700 5701 5702 5704 5705 5705 5704 5703 5702 5700 5699 5696 5693 5690 5686 5682 5678 5673
5614 5616 5619 5622 5624 5628 5630 5633 5635 5637 5640 5643 5645 5649 5652 5655 5658 5661 5663 5667 5670 5674 5677 5680 5684 5687 5689 5691 5692 5693 5694 5694 5693 5692 5691 5689 5687 5684 5681 5677 5673 5668 5663
5602 5604 5606 5609 5612 5615 5617 5620 5622 5625 5627 5629 5632 5635 5639 5642 5645 5648 5650 5653 5656 5660 5663 5668 5671 5673 5676 5679 5681 5682 5683 5683 5683 5682 5681 5679 5677 5674 5671 5667 5663 5659 5654
5589 5592 5594 5597 5600 5603 5605 5607 5610 5612 5614 5617 5619 5622 5626 5630 5632 5635 5638 5640 5643 5646 5651 5655 5658 5661 5664 5666 5669 5671 5672 5672 5672 5672 5671 5669 5667 5664 5661 5658 5653 5649 5644
5578 5580 5583 5586 5589 5591 5593 5596 5598 5600 5602 5605 5607 5610 5614 5618 5620 5623 5626 5629 5631 5634 5638 5643 5646 5649 5652 5655 5657 5659 5660 5661 5661 5661 5660 5659 5657 5654 5652 5648 5644 5639 5635
5567 5569 5573 5576 5578 5580 5583 5585 5587 5589 5591 5593 5596 5599 5603 5606 5608 5612 5615 5618 5620 5623 5627 5631 5634 5638 5641 5643 5645 5647 5649 5650 5651 5651 5650 5648 5646 5644 5641 5638 5634 5630 5625
5558 5561 5563 5566 5568 5570 5572 5574 5576 5578 5580 5582 5585 5588 5592 5594 5597 5601 5604 5607 5610 5612 5615 5619 5623 5626 5629 5632 5634 5636 5638 5639 5640 5640 5639 5638 5636 5634 5631 5628 5624 5620 5615
5550 5552 5555 5557 5559 5560 5562 5563 5565 5567 5570 5572 5575 5578 5581 5583 5586 5590 5594 5597 5600 5602 5605 5607 5612 5615 5618 5620 5622 5625 5626 5628 5629 5629 5628 5627 5626 5624 5621 5618 5614 5610 5606
5543 5545 5547 5548 5549 5551 5552 5554 5555 5557 5560 5563 5566 5568 5571 5573 5576 5579 5583 5586 5589 5591 5594 5596 5600 5604 5606 5609 5611 5613 5615 5617 5618 5618 5617 5617 5615 5613 5611 5608 5605 5601 5596
5537 5538 5539 5540 5541 5542 5543 5544 5546 5548 5551 5554 5556 5559 5561 5563 5566 5569 5572 5575 5578 5580 5583 5585 5589 5592 5595 5598 5601 5603 5604 5606 5607 5607 5607 5607 5606 5604 5601 5598 5595 5591 5587
5531 5531 5531 5532 5532 5533 5534 5536 5537 5540 5542 5545 5547 5549 5551 5553 5556 5558 5561 5564 5567 5570 5572 5575 5578 5581 5585 5588 5590 5592 5593 5594 5596 5597 5596 5597 5596 5594 5592 5589 5586 5582 5578
5524 5524 5524 5524 5525 5526 5527 5528 5529 5531 5534 5536 5538 5540 5542 5544 5546 5549 5551 5554 5557 5559 5562 5565 5568 5571 5574 5577 5579 5581 5582 5583 5585 5585 5586 5586 5585 5584 5583 5580 5577 5573 5570
5519 5518 5517 5517 5518 5518 5519 5521 5522 5524 5526 5528 5529 5531 5534 5535 5537 5539 5542 5545 5547 5550 5552 5555 5558 5561 5563 5565 5568 5570 5571 5573 5574 5575 5575 5576 5575 5575 5573 5571 5568 5565 5562
5512 5511 5511 5511 5511 5511 5512 5513 5514 5516 5518 5519 5521 5523 5525 5527 5528 5530 5533 5535 5538 5541 5543 5545 5548 5551 5553 5555 5557 5559 5561 5562 5564 5565 5566 5566 5566 5565 5564 5562 5559 5556 5553
5507 5506 5505 5504 5504 5505 5505 5506 5507 5508 5510 5511 5513 5514 5516 5518 5519 5521 5523 5526 5529 5531 5534 5536 5539 5541 5543 5545 5547 5549 5551 5552 5554 5556 5557 5557 5557 5556 5555 5554 5551 5549 5546